Hartsville, SC

3:27 AM EDT on June 25, 2017 (GMT -0400)
Hartsville Regional

Weather History for KHVS - April, 2013

Change the Weather History Date:

Sunday, April 21, 2013

  Actual Average (KFLO) Record (KFLO)
Temperature  
Mean Temperature 56 °F -  
Max Temperature 69 °F 78 °F 93 °F (2002)
Min Temperature 42 °F 52 °F 33 °F (1953)
Degree Days  
Heating Degree Days 10    
Growing Degree Days 6 (Base 50)    
Moisture  
Dew Point 40 °F    
Average Humidity 55    
Maximum Humidity 100    
Minimum Humidity 28    
Precipitation  
Precipitation 0.00 in - - ()
Sea Level Pressure  
Sea Level Pressure 30.36 in    
Wind  
Wind Speed 5 mph (ENE)    
Max Wind Speed 18 mph    
Max Gust Speed 25 mph    
Visibility 10 miles    
Events      
Averages and records for this station are not official NWS values.
T = Trace of Precipitation, MM = Missing Value Source: NWS Daily Summary

Daily Weather History Graph

Daily Weather History Graph

Search for Another Location

Airport or City:

Trip Planner

Search our weather history database for the weather conditions in past years. The results will help you decide how hot, cold, wet, or windy it might be!

Date:

Astronomy

Apr. 21, 2013 Rise Set
Actual Time 6:41 AM EDT 7:57 PM EDT
Civil Twilight 6:15 AM EDT 8:23 PM EDT
Nautical Twilight 5:44 AM EDT 8:54 PM EDT
Astronomical Twilight 5:11 AM EDT 9:27 PM EDT
Moon 3:51 PM EDT (4/21) 3:51 AM EDT (4/21)
Length of Visible Light 14h 08m
Length of Day
13h 15m
Waxing Gibbous, 79% of the Moon is Illuminated
Apr 21
Waxing Gibbous
Apr 25
Full
May 2
Last Quarter
May 9
New
May 18
First Quarter

Hourly Weather History & Observations

Time (EDT) Temp. Windchill Dew Point Humidity Pressure Visibility Wind Dir Wind Speed Gust Speed Precip Events Conditions
12:15 AM 50.0 °F - 42.8 °F 76% 30.27 in 10.0 mi Calm Calm - N/A   Clear
12:35 AM 50.0 °F - 42.8 °F 76% 30.27 in 10.0 mi Calm Calm - N/A   Clear
12:55 AM 46.4 °F - 44.6 °F 93% 30.27 in 10.0 mi Calm Calm - N/A   Clear
1:15 AM 46.4 °F - 42.8 °F 87% 30.27 in 10.0 mi Calm Calm - N/A   Clear
1:35 AM 46.4 °F - 44.6 °F 93% 30.28 in 10.0 mi Calm Calm - N/A   Clear
1:55 AM 44.6 °F - 44.6 °F 100% 30.28 in 10.0 mi Calm Calm - N/A   Clear
2:15 AM 44.6 °F - 44.6 °F 100% 30.28 in 10.0 mi Calm Calm - N/A   Clear
2:35 AM 44.6 °F - 42.8 °F 93% 30.28 in 10.0 mi Calm Calm - N/A   Clear
5:15 AM 42.8 °F - 42.8 °F 100% 30.30 in 10.0 mi Calm Calm - N/A   Clear
5:35 AM 42.8 °F - 42.8 °F 100% 30.31 in 10.0 mi Calm Calm - N/A   Clear
5:55 AM 42.8 °F - 42.8 °F 100% 30.31 in 10.0 mi Calm Calm - N/A   Clear
6:15 AM 42.8 °F - 42.8 °F 100% 30.32 in 10.0 mi Calm Calm - N/A   Clear
6:35 AM 44.6 °F - 42.8 °F 93% 30.33 in 10.0 mi Calm Calm - N/A   Clear
6:55 AM 44.6 °F - 42.8 °F 93% 30.35 in 10.0 mi Calm Calm - N/A   Clear
7:15 AM 46.4 °F 42.4 °F 44.6 °F 93% 30.36 in 10.0 mi NNE 8.1 mph - N/A   Clear
7:35 AM 48.2 °F - 44.6 °F 87% 30.37 in 10.0 mi NNE 8.1 mph - N/A   Clear
7:55 AM 50.0 °F - 44.6 °F 82% 30.37 in 10.0 mi NNE 6.9 mph - N/A   Clear
8:15 AM 51.8 °F - 42.8 °F 71% 30.38 in 10.0 mi Calm Calm - N/A   Clear
8:35 AM 53.6 °F - 41.0 °F 62% 30.38 in 10.0 mi Calm Calm - N/A   Clear
8:55 AM 55.4 °F - 41.0 °F 58% 30.39 in 10.0 mi NE 8.1 mph - N/A   Clear
9:15 AM 57.2 °F - 41.0 °F 55% 30.39 in 10.0 mi NE 8.1 mph - N/A   Clear
9:35 AM 59.0 °F - 41.0 °F 51% 30.40 in 10.0 mi ENE 10.4 mph - N/A   Clear
9:55 AM 59.0 °F - 39.2 °F 48% 30.40 in 10.0 mi NNE 11.5 mph 19.6 mph N/A   Clear
10:15 AM 60.8 °F - 39.2 °F 45% 30.41 in 10.0 mi NE 11.5 mph - N/A   Clear
10:35 AM 60.8 °F - 35.6 °F 39% 30.41 in 10.0 mi East 8.1 mph 25.3 mph N/A   Clear
10:55 AM 60.8 °F - 37.4 °F 42% 30.41 in 10.0 mi ENE 12.7 mph 19.6 mph N/A   Clear
11:15 AM 62.6 °F - 37.4 °F 39% 30.42 in 10.0 mi ENE 11.5 mph 21.9 mph N/A   Clear
11:35 AM 62.6 °F - 35.6 °F 37% 30.42 in 10.0 mi ENE 15.0 mph 20.7 mph N/A   Clear
11:55 AM 64.4 °F - 37.4 °F 37% 30.41 in 10.0 mi East 11.5 mph 21.9 mph N/A   Clear
12:15 PM 64.4 °F - 37.4 °F 37% 30.41 in 7.0 mi East 16.1 mph 21.9 mph N/A   Scattered Clouds
12:35 PM 64.4 °F - 35.6 °F 34% 30.41 in 10.0 mi ENE 12.7 mph 24.2 mph N/A   Scattered Clouds
12:55 PM 66.2 °F - 37.4 °F 35% 30.40 in 10.0 mi NE 15.0 mph 23.0 mph N/A   Clear
1:15 PM 66.2 °F - 37.4 °F 35% 30.40 in 10.0 mi NE 10.4 mph 23.0 mph N/A   Scattered Clouds
1:35 PM 64.4 °F - 37.4 °F 37% 30.40 in 10.0 mi NE 13.8 mph 23.0 mph N/A   Scattered Clouds
1:55 PM 68.0 °F - 37.4 °F 33% 30.39 in 10.0 mi East 8.1 mph 16.1 mph N/A   Scattered Clouds
2:15 PM 68.0 °F - 37.4 °F 33% 30.39 in 10.0 mi NE 18.4 mph 24.2 mph N/A   Clear
2:35 PM 68.0 °F - 37.4 °F 33% 30.38 in 10.0 mi ENE 11.5 mph 24.2 mph N/A   Scattered Clouds
2:55 PM 68.0 °F - 37.4 °F 33% 30.37 in 10.0 mi ENE 12.7 mph 20.7 mph N/A   Scattered Clouds
3:15 PM 68.0 °F - 37.4 °F 33% 30.37 in 10.0 mi ENE 11.5 mph 18.4 mph N/A   Scattered Clouds
3:35 PM 68.0 °F - 37.4 °F 33% 30.37 in 10.0 mi ENE 13.8 mph 20.7 mph N/A   Scattered Clouds
3:55 PM 69.8 °F - 37.4 °F 31% 30.35 in 10.0 mi ENE 15.0 mph 19.6 mph N/A   Mostly Cloudy
4:15 PM 68.0 °F - 35.6 °F 30% 30.35 in 7.0 mi ENE 12.7 mph 17.3 mph N/A   Scattered Clouds
4:35 PM 68.0 °F - 35.6 °F 30% 30.34 in 7.0 mi ENE 12.7 mph 19.6 mph N/A   Scattered Clouds
4:55 PM 66.2 °F - 35.6 °F 32% 30.34 in 10.0 mi East 9.2 mph 21.9 mph N/A   Scattered Clouds
5:15 PM 69.8 °F - 35.6 °F 28% 30.34 in 10.0 mi ENE 13.8 mph 19.6 mph N/A   Scattered Clouds
5:35 PM 69.8 °F - 35.6 °F 28% 30.34 in 10.0 mi ENE 10.4 mph 18.4 mph N/A   Scattered Clouds
5:55 PM 68.0 °F - 35.6 °F 30% 30.34 in 10.0 mi ENE 15.0 mph 20.7 mph N/A   Scattered Clouds
6:15 PM 64.4 °F - 35.6 °F 34% 30.34 in 7.0 mi ENE 9.2 mph - N/A   Scattered Clouds
6:35 PM 64.4 °F - 37.4 °F 37% 30.34 in 10.0 mi ENE 10.4 mph 16.1 mph N/A   Scattered Clouds
6:55 PM 64.4 °F - 37.4 °F 37% 30.35 in 10.0 mi ENE 8.1 mph 16.1 mph N/A   Clear
7:15 PM 64.4 °F - 37.4 °F 37% 30.35 in 10.0 mi NE 11.5 mph - N/A   Clear
7:35 PM 62.6 °F - 39.2 °F 42% 30.36 in 10.0 mi NE 9.2 mph - N/A   Scattered Clouds
7:55 PM 60.8 °F - 39.2 °F 45% 30.36 in 10.0 mi NE 9.2 mph - N/A   Scattered Clouds
8:15 PM 60.8 °F - 41.0 °F 48% 30.37 in 10.0 mi NE 6.9 mph - N/A   Scattered Clouds
8:35 PM 60.8 °F - 41.0 °F 48% 30.38 in 10.0 mi ENE 10.4 mph - N/A   Mostly Cloudy
8:55 PM 59.0 °F - 41.0 °F 51% 30.38 in 10.0 mi NE 9.2 mph - N/A   Scattered Clouds
9:15 PM 59.0 °F - 41.0 °F 51% 30.40 in 10.0 mi NE 6.9 mph - N/A   Clear
9:35 PM 59.0 °F - 41.0 °F 51% 30.40 in 10.0 mi ENE 5.8 mph - N/A   Clear
9:55 PM 57.2 °F - 41.0 °F 55% 30.40 in 10.0 mi ENE 9.2 mph 16.1 mph N/A   Clear
10:15 PM 57.2 °F - 39.2 °F 51% 30.40 in 10.0 mi ENE 10.4 mph - N/A   Clear
10:35 PM 55.4 °F - 39.2 °F 54% 30.41 in 10.0 mi ENE 8.1 mph - N/A   Clear
10:55 PM 55.4 °F - 39.2 °F 54% 30.40 in 10.0 mi ENE 9.2 mph - N/A   Clear
11:15 PM 53.6 °F - 39.2 °F 58% 30.40 in 10.0 mi East 10.4 mph - N/A   Clear
11:55 PM 53.6 °F - 41.0 °F 62% 30.40 in 10.0 mi ENE 9.2 mph - N/A   Clear